Kamloops,

6:26 AM PDT on July 27, 2017 (GMT -0700)
Kamloops

Weather History for CYKA - July, 2013

Change the Weather History Date:

Tuesday, July 30, 2013

  Actual Average Record
Temperature  
Mean Temperature 71 °F -  
Max Temperature 88 °F 82 °F 102 °F (2003)
Min Temperature 54 °F 55 °F 51 °F (2001)
Cooling Degree Days 6    
Growing Degree Days 21 (Base 50)    
Moisture  
Dew Point 43 °F    
Average Humidity 35    
Maximum Humidity 59    
Minimum Humidity 13    
Precipitation  
Precipitation 0.00 in 0.04 in - ()
Sea Level Pressure  
Sea Level Pressure 30.07 in    
Wind  
Wind Speed 5 mph ()    
Max Wind Speed 14 mph    
Max Gust Speed 20 mph    
Averages and records for this station are not official NWS values.
T = Trace of Precipitation, MM = Missing Value Source: Averaged Metar Reports

Daily Weather History Graph

Daily Weather History Graph

Search for Another Location

Airport or City:

Trip Planner

Search our weather history database for the weather conditions in past years. The results will help you decide how hot, cold, wet, or windy it might be!

Date:

Astronomy

Jul. 30, 2013 Rise Set
Actual Time 5:26 AM PDT 8:49 PM PDT
Civil Twilight 4:46 AM PDT 9:28 PM PDT
Nautical Twilight 3:52 AM PDT 10:21 PM PDT
Astronomical Twilight 2:39 AM PDT 11:33 PM PDT
Moon No Moon Rise 3:12 PM PDT (7/30)
Length of Visible Light 16h 42m
Length of Day
15h 22m
Last Quarter, 40% of the Moon is Illuminated
Jul 30
Last Quarter
Aug 6
New
Aug 14
First Quarter
Aug 20
Full
Aug 28
Last Quarter

Hourly Weather History & Observations

Time (PDT) Temp. Dew Point Humidity Pressure Visibility Wind Dir Wind Speed Gust Speed Precip Events Conditions
12:00 AM 66.2 °F 37.4 °F 35% 30.00 in 40.0 mi West 5.8 mph - N/A   Clear
1:00 AM 64.4 °F 39.2 °F 40% 30.01 in 40.0 mi WSW 8.1 mph - N/A   Clear
2:00 AM 60.8 °F 39.2 °F 45% 30.03 in 40.0 mi NW 3.5 mph - N/A   Clear
3:00 AM 59.0 °F 41.0 °F 51% 30.04 in 40.0 mi WSW 5.8 mph - N/A   Clear
4:00 AM 60.8 °F 41.0 °F 48% 30.06 in 40.0 mi WSW 6.9 mph - N/A   Partly Cloudy
5:00 AM 57 °F 43 °F 49% 30.09 in 37 mi East 4.6 mph - -   Clear
5:00 AM 57.2 °F 42.8 °F 59% 30.08 in 40.0 mi East 5.8 mph - N/A   Partly Cloudy
6:00 AM 57.2 °F 41.0 °F 55% 30.11 in 40.0 mi Calm Calm - N/A   Partly Cloudy
7:00 AM 60.8 °F 44.6 °F 55% 30.12 in 40.0 mi East 4.6 mph - N/A   Partly Cloudy
8:00 AM 64.4 °F 42.8 °F 45% 30.13 in 40.0 mi East 2.3 mph - N/A   Partly Cloudy
9:00 AM 68.0 °F 42.8 °F 40% 30.13 in 40.0 mi SSW 4.6 mph - N/A   Partly Cloudy
10:00 AM 71.6 °F 44.6 °F 38% 30.12 in 40.0 mi West 4.6 mph - N/A   Partly Cloudy
11:00 AM 75 °F 43 °F 21% 30.11 in 37 mi SSW 2.3 mph - -   Scattered Clouds
11:00 AM 75.2 °F 42.8 °F 31% 30.11 in 40.0 mi SSW 3.5 mph - N/A   Partly Cloudy
12:00 PM 80.6 °F 44.6 °F 28% 30.08 in 40.0 mi West 3.5 mph - N/A   Partly Cloudy
1:00 PM 82.4 °F 46.4 °F 28% 30.06 in 40.0 mi West 8.1 mph - N/A   Partly Cloudy
2:00 PM 86.0 °F 48.2 °F 27% 30.05 in 40.0 mi West 13.8 mph 19.6 mph N/A   Scattered Clouds
3:00 PM 86.0 °F 44.6 °F 23% 30.05 in 40.0 mi West 11.5 mph - N/A   Scattered Clouds
4:00 PM 87.8 °F 46.4 °F 24% 30.04 in 40.0 mi West 11.5 mph - N/A   Scattered Clouds
5:00 PM 87 °F 44 °F 13% 30.03 in 37 mi West 10.4 mph - -   Partly Cloudy
5:00 PM 87.8 °F 44.6 °F 22% 30.03 in 40.0 mi West 9.2 mph - N/A   Scattered Clouds
6:00 PM 87.8 °F 42.8 °F 21% 30.02 in 40.0 mi NNW 8.1 mph - N/A   Partly Cloudy
7:00 PM 86.0 °F 41.0 °F 20% 30.02 in 40.0 mi North 8.1 mph - N/A   Partly Cloudy
8:00 PM 80.6 °F 48.2 °F 32% 30.03 in 40.0 mi SSW 4.6 mph - N/A   Partly Cloudy
9:00 PM 78.8 °F 39.2 °F 24% 30.04 in 40.0 mi South 3.5 mph - N/A   Partly Cloudy
10:00 PM 73.4 °F 42.8 °F 33% 30.07 in 40.0 mi WSW 3.5 mph - N/A   Partly Cloudy
11:00 PM 72 °F 44 °F 26% 30.09 in 37 mi Calm Calm - -   Scattered Clouds
11:00 PM 71.6 °F 44.6 °F 38% 30.09 in 40.0 mi WSW 4.6 mph - N/A   Clear